Skip Page Navigation
NASA JPL Caltech
NASA Logo - Jet Propulsion Laboratory + View the NASA Portal
+ Near-Earth Object (NEO) Program
Search JPL
JPL Home Earth Solar System Stars & Galaxies Technology
JPL Solar System Dynamics
BODIES ORBITS EPHEMERIDES TOOLS PHYSICAL DATA DISCOVERY FAQ SITE MAP
JPL Small-Body Database Browser
Search: [ help ]  
246262 (2007 TJ17)
Classification: Main-belt Asteroid          SPK-ID: 2246262
Ephemeris | Orbit Diagram | Orbital Elements | Physical Parameters | Discovery Circumstances ]

[ hide orbit diagram ]
Orbit Diagram
Note: Make sure you have Java enabled on your browser to see the applet. This applet is provided as a 3D orbit visualization tool. The applet was implemented using 2-body methods, and hence should not be used for determining accurate long-term trajectories (over several years or decades) or planetary encounter circumstances. For accurate long-term ephemerides, please instead use our Horizons system.
Orbit Viewer

Additional Notes: the orbits shown in the applet are color coded. The planets are white lines, and the asteroid/comet is a blue line. The bright white line indicates the portion of the orbit that is above the ecliptic plane, and the darker portion is below the ecliptic plane. Likewise for the asteroid/comet orbit, the light blue indicates the portion above the ecliptic plane, and the dark blue the portion below the ecliptic plane.

Orbit Viewer applet originally written and kindly provided by Osamu Ajiki (AstroArts), and further modified by Ron Baalke (JPL).


Orbital Elements at Epoch 2456400.5 (2013-Apr-18.0) TDB
Reference: MPO179067 (heliocentric ecliptic J2000)
 Element Value Uncertainty (1-sigma)   Units 
e 0.2401646 n/a  
a 2.2069004 n/a AU
q 1.6768810 n/a AU
i 2.47378 n/a deg
node 17.54405 n/a deg
peri 321.50745 n/a deg
M 278.69441 n/a deg
tp 2456670.9521443
(2014-Jan-13.45214430)
n/a JED
period 1197.4917338
3.28
n/a
n/a
d
yr
n 0.30062838 n/a deg/d
Q 2.7369198 n/a AU
  Orbit Determination Parameters
   # obs. used (total)      84  
   first obs. used      1997-??-??  
   last obs. used      2010-07-18  
   # oppositions      4  
   planetary ephem.      DE403  
   condition code      1  
   fit RMS      0.47  
   data source      MPC:mpu  
   producer      MPCADO  

Additional Information
 T_jup = 3.621 

Ephemeris | Orbit Diagram | Orbital Elements | Physical Parameters | Discovery Circumstances ]

Physical Parameter Table
Parameter Symbol Value Units Sigma Reference Notes
absolute magnitude H 18.5 mag n/a MPO179067  

246262 (2007 TJ17)          Discovered 2007-Oct-07 by Calvin College at Calvin-Rehoboth (G98)
Reference: 20100726/Numbers.arcLast Updated: 2010-07-28
Ephemeris | Orbit Diagram | Orbital Elements | Physical Parameters | Discovery Circumstances ]
ABOUT SSD CREDITS/AWARDS PRIVACY/COPYRIGHT GLOSSARY LINKS
FirstGov 2013-Jun-19 18:37 UT
(server date/time)  
NASA Home Page
Site Manager:   Donald K. Yeomans
Webmaster  Alan B. Chamberlin